View from above orbital plane
|
View from above satellite
|
Ground track
|
The orbit data is extracted from the following two-line orbital elements,
1 27819U 03023B 21065.85470098 .00000142 00000-0 13385-3 0 9990
2 27819 82.9443 100.3185 0045154 235.9174 297.3054 13.74238161890347
Epoch (UTC): | 06 March 2021 20:30:46 |
Eccentricity: | 0.0045154 |
inclination: | 82.9443° |
perigee height: | 951 km |
apogee height: | 1017 km |
right ascension of ascending node: | 100.3185° |
argument of perigee: | 235.9174° |
revolutions per day: | 13.74238161 |
mean anomaly at epoch: | 297.3054° |
orbit number at epoch: | 89034 |
The dashed part of the orbit path shows where the satellite is in the earth's shadow,
|
|